| time (UTC) | temp F | wind direction | speed knots | gust knots | rain 1hr in | rain 24hr in | rain mn in | humidity % | barometer mb |
| 20260906234514 | 64 | 297 | 2.6 | 0.0 | 0.00 | 0.00 | 1.06 | 72 | 1011.7 |
| 20260906233013 | 63 | 344 | 3.5 | 0.0 | 0.00 | 0.00 | 1.06 | 73 | 1011.6 |
| 20260906231516 | 64 | 324 | 4.3 | 0.0 | 0.00 | 0.00 | 1.06 | 72 | 1011.6 |
| 20260906230013 | 63 | 312 | 4.3 | 0.0 | 0.00 | 0.00 | 1.06 | 74 | 1011.5 |
| 20260906224508 | 63 | 310 | 4.3 | 0.0 | 0.00 | 0.00 | 1.06 | 74 | 1011.9 |
| 20260906223007 | 63 | 290 | 3.5 | 0.0 | 0.00 | 0.00 | 1.06 | 72 | 1012.0 |
| 20260906221512 | 61 | 300 | 4.3 | 0.0 | 0.00 | 0.00 | 1.06 | 74 | 1012.2 |
| 20260906220010 | 61 | 257 | 5.2 | 0.0 | 0.00 | 0.00 | 1.06 | 75 | 1012.5 |
| 20260906214503 | 62 | 255 | 2.6 | 0.0 | 0.00 | 0.00 | 1.06 | 75 | 1012.5 |
| 20260906213003 | 61 | 280 | 2.6 | 0.0 | 0.00 | 0.00 | 1.06 | 75 | 1012.3 |
| 20260906211505 | 61 | 285 | 3.5 | 0.0 | 0.00 | 0.00 | 1.06 | 75 | 1012.2 |
| 20260906210002 | 61 | 261 | 2.6 | 0.0 | 0.00 | 0.00 | 1.06 | 76 | 1012.0 |
| 20260906204502 | 61 | 315 | 3.5 | 0.0 | 0.00 | 0.00 | 1.06 | 75 | 1012.1 |
| 20260906203100 | 62 | 315 | 0.9 | 0.0 | 0.00 | 0.00 | 1.06 | 72 | 1012.1 |
| 20260906201614 | 62 | 284 | 1.7 | 0.0 | 0.00 | 0.00 | 1.06 | 71 | 1012.2 |
| 20260906200059 | 61 | 333 | 2.6 | 0.0 | 0.00 | 0.00 | 1.06 | 71 | 1012.2 |
| 20260906194556 | 61 | 350 | 3.5 | 0.0 | 0.00 | 0.00 | 1.06 | 74 | 1012.3 |
| 20260906193056 | 61 | 343 | 3.5 | 0.0 | 0.00 | 0.00 | 1.06 | 76 | 1012.4 |
| 20260906191559 | 61 | 329 | 2.6 | 0.0 | 0.00 | 0.00 | 1.06 | 75 | 1012.6 |
| 20260906190053 | 60 | 46 | 1.7 | 0.0 | 0.00 | 0.00 | 1.06 | 74 | 1012.7 |
| 20260906184551 | 60 | 360 | 2.6 | 0.0 | 0.00 | 0.00 | 1.06 | 77 | 1012.8 |
| 20260906183111 | 59 | 35 | 3.5 | 0.0 | 0.00 | 0.00 | 1.06 | 79 | 1012.8 |
| 20260906181551 | 58 | 33 | 4.3 | 0.0 | 0.00 | 0.00 | 1.06 | 80 | 1012.9 |
| 20260906174543 | 58 | 36 | 7.8 | 0.0 | 0.00 | 0.00 | 1.06 | 85 | 1012.6 |
| 20260906173039 | 57 | 11 | 7.8 | 0.0 | 0.00 | 0.00 | 1.06 | 87 | 1013.5 |
| 20260906171539 | 56 | 5 | 9.6 | 0.0 | 0.00 | 0.00 | 1.06 | 87 | 1013.8 |
| 20260906170039 | 56 | 15 | 8.7 | 0.0 | 0.00 | 0.00 | 1.06 | 89 | 1014.0 |
| 20260906164533 | 56 | 16 | 7.8 | 0.0 | 0.00 | 0.00 | 1.06 | 90 | 1014.0 |
| 20260906163032 | 54 | 32 | 4.3 | 0.0 | 0.00 | 0.00 | 1.06 | 92 | 1014.6 |
| 20260906161529 | 54 | 310 | 5.2 | 0.0 | 0.00 | 0.00 | 1.06 | 92 | 1015.3 |
| 20260906160030 | 54 | 294 | 4.3 | 0.0 | 0.00 | 0.00 | 1.05 | 92 | 1015.3 |
| 20260906154527 | 54 | 350 | 5.2 | 0.0 | 0.00 | 0.00 | 1.05 | 93 | 1014.7 |
| 20260906153027 | 54 | 334 | 3.5 | 0.0 | 0.00 | 0.00 | 1.05 | 92 | 1015.1 |
| 20260906151531 | 53 | 350 | 6.1 | 0.0 | 0.00 | 0.00 | 1.05 | 93 | 1015.0 |
| 20260906150026 | 53 | 307 | 7.0 | 0.0 | 0.00 | 0.00 | 1.05 | 93 | 1015.1 |
| 20260906144528 | 53 | 300 | 7.0 | 0.0 | 0.00 | 0.00 | 1.05 | 93 | 1015.1 |
| 20260906143025 | 53 | 308 | 8.7 | 0.0 | 0.00 | 0.00 | 1.05 | 93 | 1015.4 |
| 20260906141524 | 53 | 304 | 10.4 | 0.0 | 0.00 | 0.00 | 1.05 | 93 | 1015.6 |
| 20260906140035 | 52 | 283 | 10.4 | 0.0 | 0.00 | 0.00 | 1.01 | 93 | 1016.2 |
| 20260906134522 | 53 | 312 | 12.2 | 0.0 | 0.00 | 0.00 | 0.97 | 93 | 1015.9 |
| 20260906133021 | 53 | 275 | 15.6 | 0.0 | 0.00 | 0.00 | 0.79 | 92 | 1015.7 |
| 20260906131520 | 53 | 286 | 10.4 | 0.0 | 0.00 | 0.00 | 0.77 | 92 | 1015.4 |
| 20260906130025 | 53 | 259 | 2.6 | 0.0 | 0.00 | 0.00 | 0.77 | 92 | 1014.9 |
| 20260906124518 | 53 | 311 | 3.5 | 0.0 | 0.00 | 0.00 | 0.77 | 92 | 1014.8 |
| 20260906123030 | 53 | 321 | 7.8 | 0.0 | 0.00 | 0.00 | 0.77 | 91 | 1015.0 |
| 20260906121530 | 54 | 331 | 8.7 | 0.0 | 0.00 | 0.00 | 0.77 | 91 | 1015.2 |
| 20260906120017 | 54 | 325 | 8.7 | 0.0 | 0.00 | 0.00 | 0.77 | 91 | 1014.9 |
| 20260906114522 | 54 | 312 | 12.2 | 0.0 | 0.00 | 0.00 | 0.77 | 91 | 1015.4 |
| 20260906113036 | 53 | 294 | 12.2 | 0.0 | 0.00 | 0.00 | 0.77 | 92 | 1015.7 |
| 20260906111515 | 54 | 250 | 9.6 | 0.0 | 0.00 | 0.00 | 0.77 | 91 | 1016.0 |
| 20260906110013 | 54 | 331 | 3.5 | 0.0 | 0.00 | 0.00 | 0.77 | 92 | 1015.0 |
| 20260906104517 | 54 | 42 | 4.3 | 0.0 | 0.00 | 0.00 | 0.77 | 92 | 1014.7 |
| 20260906103011 | 54 | 35 | 7.0 | 0.0 | 0.00 | 0.00 | 0.77 | 93 | 1014.5 |
| 20260906101509 | 54 | 47 | 6.1 | 0.0 | 0.00 | 0.00 | 0.77 | 93 | 1014.5 |
| 20260906100015 | 54 | 44 | 5.2 | 0.0 | 0.00 | 0.00 | 0.77 | 93 | 1015.0 |
| 20260906094505 | 54 | 11 | 7.0 | 0.0 | 0.00 | 0.00 | 0.77 | 94 | 1015.0 |
| 20260906093004 | 54 | 13 | 7.8 | 0.0 | 0.00 | 0.00 | 0.77 | 94 | 1015.0 |
| 20260906091503 | 53 | 40 | 7.0 | 0.0 | 0.00 | 0.00 | 0.77 | 94 | 1015.0 |
| 20260906090001 | 53 | 12 | 6.1 | 0.0 | 0.00 | 0.00 | 0.77 | 93 | 1015.2 |
| 20260906084559 | 53 | 28 | 5.2 | 0.0 | 0.00 | 0.00 | 0.77 | 93 | 1015.5 |
| 20260906083101 | 53 | 13 | 3.5 | 0.0 | 0.00 | 0.00 | 0.75 | 93 | 1016.3 |
| 20260906081612 | 53 | 342 | 5.2 | 0.0 | 0.00 | 0.00 | 0.69 | 93 | 1017.1 |
| 20260906074610 | 53 | 249 | 5.2 | 0.0 | 0.00 | 0.00 | 0.32 | 92 | 1017.6 |
| 20260906073054 | 53 | 321 | 12.2 | 0.0 | 0.00 | 0.00 | 0.27 | 92 | 1015.5 |
| 20260906071551 | 53 | 5 | 10.4 | 0.0 | 0.00 | 0.00 | 0.25 | 92 | 1016.1 |
| 20260906070049 | 54 | 330 | 6.1 | 0.0 | 0.00 | 0.00 | 0.11 | 92 | 1017.4 |
| 20260906064548 | 54 | 340 | 9.6 | 0.0 | 0.00 | 0.00 | 0.04 | 92 | 1016.5 |
| 20260906063046 | 53 | 12 | 10.4 | 0.0 | 0.00 | 0.00 | 0.02 | 92 | 1016.9 |
| 20260906061543 | 54 | 342 | 7.8 | 0.0 | 0.00 | 0.00 | 0.02 | 92 | 1017.1 |
| 20260906060039 | 54 | 360 | 6.1 | 0.0 | 0.00 | 0.00 | 0.00 | 92 | 1017.9 |
| 20260906054538 | 54 | 309 | 7.0 | 0.0 | 0.00 | 0.00 | 0.36 | 91 | 1018.3 |
| 20260906053036 | 54 | 296 | 7.0 | 0.0 | 0.00 | 0.00 | 0.31 | 91 | 1017.7 |
| 20260906051539 | 54 | 360 | 6.1 | 0.0 | 0.00 | 0.00 | 0.27 | 90 | 1017.6 |
| 20260906050044 | 54 | 5 | 7.8 | 0.0 | 0.00 | 0.00 | 0.26 | 90 | 1017.2 |
| 20260906044538 | 55 | 346 | 5.2 | 0.0 | 0.00 | 0.00 | 0.21 | 88 | 1017.3 |
| 20260906043032 | 55 | 303 | 6.1 | 0.0 | 0.00 | 0.00 | 0.17 | 88 | 1017.3 |
| 20260906041535 | 55 | 344 | 5.2 | 0.0 | 0.00 | 0.00 | 0.17 | 88 | 1016.9 |
| 20260906040031 | 56 | 36 | 2.6 | 0.0 | 0.00 | 0.00 | 0.17 | 88 | 1017.0 |
| 20260906034530 | 56 | 319 | 7.0 | 0.0 | 0.00 | 0.00 | 0.17 | 88 | 1016.4 |
| 20260906033040 | 56 | 15 | 10.4 | 0.0 | 0.00 | 0.00 | 0.17 | 87 | 1015.8 |
| 20260906031531 | 57 | 19 | 5.2 | 0.0 | 0.00 | 0.00 | 0.14 | 82 | 1017.0 |
| 20260906030027 | 59 | 336 | 6.1 | 0.0 | 0.00 | 0.00 | 0.12 | 75 | 1016.8 |
| 20260906024523 | 60 | 308 | 9.6 | 0.0 | 0.00 | 0.00 | 0.12 | 72 | 1015.7 |
| 20260906023025 | 60 | 342 | 7.8 | 0.0 | 0.00 | 0.00 | 0.12 | 72 | 1014.9 |
| 20260906021522 | 60 | 355 | 8.7 | 0.0 | 0.00 | 0.00 | 0.12 | 71 | 1014.6 |
| 20260906020023 | 61 | 342 | 8.7 | 0.0 | 0.00 | 0.00 | 0.12 | 69 | 1014.6 |
| 20260906014522 | 61 | 350 | 7.8 | 0.0 | 0.00 | 0.00 | 0.12 | 68 | 1015.0 |
| 20260906013022 | 62 | 340 | 7.0 | 0.0 | 0.00 | 0.00 | 0.12 | 66 | 1014.6 |
| 20260906011528 | 63 | 9 | 8.7 | 0.0 | 0.00 | 0.00 | 0.12 | 65 | 1014.6 |
| 20260906010023 | 64 | 15 | 7.8 | 0.0 | 0.00 | 0.00 | 0.12 | 63 | 1014.4 |
| 20260906004518 | 65 | 23 | 7.8 | 0.0 | 0.00 | 0.00 | 0.12 | 62 | 1014.4 |
| 20260906003022 | 66 | 349 | 7.8 | 0.0 | 0.00 | 0.00 | 0.12 | 61 | 1014.5 |
| 20260906001519 | 67 | 9 | 6.1 | 0.0 | 0.00 | 0.00 | 0.12 | 56 | 1014.6 |
| 20260906000018 | 67 | 344 | 7.0 | 0.0 | 0.00 | 0.00 | 0.12 | 57 | 1014.7 |